Terug naar catalogus

SL-8 DEB *

ActiefVLEO
NORAD 18504·DEBRIS·🇷🇺 Russia

Gelanceerd Sep 29, 1976 vanaf Plesetsk Cosmodrome

Loading…

Volgende Passages (komende 24 uur)

TLE

VersSource: Space-Track

Epoch: Sep 14, 2026, 06:46 UTC

1 18504U 76098E   26257.28200755  .00009211  00000-0  55587-3 0  9995
2 18504  74.0243 356.7039 0006486 113.8823 278.3236 15.10818123209050

Volg SL-8 DEB * in realtime met AllMySat

Download on the App Store